This is the latest recevied weather packets stored in our database for station/object WX4ET. If no packets are shown the sender has not sent any weather packets the latest 10 day(s).
| Time | Temp. | Humidity | Pressure | Rain* | Wind** | Luminosity | Snow |
|---|---|---|---|---|---|---|---|
| 1777856062 | 14.44° C | 64% | 1011.5 hPa | 0 mm | - | 0 W/m² | - |
| 1777855759 | 15° C | 51% | 1011.5 hPa | 0 mm | - | 0 W/m² | - |
| 1777855457 | 15° C | 52% | 1011.2 hPa | 0 mm | - | 0 W/m² | - |
| 1777855154 | 15° C | 52% | 1011.2 hPa | 0 mm | - | 0 W/m² | - |
| 1777854850 | 15° C | 51% | 1011.3 hPa | 0 mm | - | 0 W/m² | - |
| 1777854547 | 15° C | 49% | 1011.3 hPa | 0 mm | - | 0 W/m² | - |
| 1777854244 | 14.44° C | 53% | 1011.2 hPa | 0 mm | - | 0 W/m² | - |
| 1777853941 | 14.44° C | 51% | 1011 hPa | 0 mm | - | 1 W/m² | - |
| 1777853639 | 15.56° C | 55% | 1010.8 hPa | 0 mm | - | 3 W/m² | - |
| 1777853335 | 15.56° C | 50% | 1011 hPa | 0 mm | - | 6 W/m² | - |
| 1777853032 | 15.56° C | 49% | 1011.1 hPa | 0 mm | - | 9 W/m² | - |
| 1777852730 | 15.56° C | 52% | 1011.1 hPa | 0 mm | - | 12 W/m² | - |
| 1777852427 | 16.67° C | 47% | 1010.9 hPa | 0 mm | - | 15 W/m² | - |
| 1777852124 | 16.67° C | 46% | 1011.1 hPa | 0 mm | - | 18 W/m² | - |
| 1777851822 | 17.22° C | 45% | 1011.2 hPa | 0 mm | - | 23 W/m² | - |
| 1777851520 | 17.78° C | 45% | 1011 hPa | 0 mm | - | 26 W/m² | - |
| 1777851216 | 17.78° C | 42% | 1011.1 hPa | 0 mm | - | 29 W/m² | - |
| 1777850912 | 17.78° C | 43% | 1011 hPa | 0 mm | - | 33 W/m² | - |
| 1777850610 | 17.78° C | 43% | 1011.2 hPa | 0 mm | - | 36 W/m² | - |
| 1777850307 | 17.78° C | 42% | 1011.2 hPa | 0 mm | - | 43 W/m² | - |
| 1777850004 | 18.33° C | 41% | 1011.3 hPa | 0 mm | - | 70 W/m² | - |
| 1777849700 | 18.33° C | 41% | 1011.3 hPa | 0 mm | - | 83 W/m² | - |
| 1777849397 | 18.33° C | 40% | 1011.2 hPa | 0 mm | - | 93 W/m² | - |
| 1777849095 | 18.89° C | 40% | 1011.2 hPa | 0 mm | - | 107 W/m² | - |
| 1777848790 | 18.33° C | 43% | 1011.5 hPa | 0 mm | - | 122 W/m² | - |
* Rain latest hour (hover to see other rain measurements)
** Current wind speed in m/s (hover to see current wind gust speed)